Greenwood, MS

6:50 AM CST on December 06, 2016 (GMT -0600)
Greenwood-Leflore

Weather History for KGWO - March, 2013

Change the Weather History Date:

Thursday, March 7, 2013

  Actual Average Record
Temperature  
Mean Temperature 46 °F 53 °F  
Max Temperature 59 °F 64 °F 82 °F (1961)
Min Temperature 32 °F 42 °F 23 °F (2015)
Degree Days  
Heating Degree Days 19 12  
Month to date heating degree days 165 92  
Since 1 July heating degree days 2245 2323  
Cooling Degree Days 0 1  
Month to date cooling degree days 0 1  
Year to date cooling degree days 12 6  
Moisture  
Dew Point 30 °F    
Average Humidity 59    
Maximum Humidity 85    
Minimum Humidity 33    
Precipitation  
Precipitation 0.00 in 0.13 in 2.19 in (1980)
Month to date precipitation 0.09 0.98  
Year to date precipitation 12.55 9.92  
Sea Level Pressure  
Sea Level Pressure 30.32 in    
Wind  
Wind Speed 3 mph (NE)    
Max Wind Speed 10 mph    
Max Gust Speed 15 mph    
Visibility 10 miles    
Events      
T = Trace of Precipitation, MM = Missing Value Source: NWS Daily Summary

Daily Weather History Graph

Daily Weather History Graph

Search for Another Location

Airport or City:

Trip Planner

Search our weather history database for the weather conditions in past years. The results will help you decide how hot, cold, wet, or windy it might be!

Date:

Astronomy

Mar. 07, 2013 Rise Set
Actual Time 6:20 AM CST 6:02 PM CST
Civil Twilight 5:55 AM CST 6:27 PM CST
Nautical Twilight 5:27 AM CST 6:55 PM CST
Astronomical Twilight 4:58 AM CST 7:24 PM CST
Moon 3:10 AM CST (3/7) 1:59 PM CST (3/7)
Length of Visible Light 12h 31m
Length of Day
11h 41m
Waning Crescent, 20% of the Moon is Illuminated
Mar 7
Waning Crescent
Mar 11
New
Mar 19
First Quarter
Mar 27
Full
Apr 2
Last Quarter

Hourly Weather History & Observations

Time (CST) Temp. Windchill Dew Point Humidity Pressure Visibility Wind Dir Wind Speed Gust Speed Precip Events Conditions
12:53 AM 36.0 °F 33.3 °F 30.0 °F 79% 30.31 in 10.0 mi ENE 3.5 mph - N/A   Clear
1:53 AM 35.1 °F 31.0 °F 28.9 °F 78% 30.31 in 10.0 mi ENE 4.6 mph - N/A   Clear
2:53 AM 35.1 °F - 28.9 °F 78% 30.32 in 10.0 mi Calm Calm - N/A   Clear
3:53 AM 32.0 °F 28.7 °F 28.0 °F 85% 30.32 in 10.0 mi NE 3.5 mph - N/A   Clear
4:53 AM 34.0 °F 29.8 °F 28.0 °F 79% 30.32 in 10.0 mi East 4.6 mph - N/A   Clear
5:53 AM 35.1 °F 31.0 °F 28.9 °F 78% 30.35 in 10.0 mi NNE 4.6 mph - N/A   Clear
6:53 AM 33.1 °F - 28.0 °F 82% 30.37 in 10.0 mi Calm Calm - N/A   Clear
7:53 AM 37.0 °F - 28.9 °F 73% 30.39 in 10.0 mi Calm Calm - N/A   Clear
8:53 AM 42.1 °F 38.4 °F 28.9 °F 60% 30.40 in 10.0 mi ENE 5.8 mph - N/A   Clear
9:53 AM 46.0 °F 43.9 °F 28.0 °F 50% 30.40 in 10.0 mi ESE 4.6 mph - N/A   Clear
10:53 AM 51.1 °F - 28.0 °F 41% 30.37 in 10.0 mi ENE 6.9 mph - N/A   Clear
11:53 AM 52.0 °F - 28.9 °F 41% 30.35 in 10.0 mi Calm Calm - N/A   Clear
12:53 PM 55.0 °F - 30.0 °F 38% 30.32 in 10.0 mi West 5.8 mph - N/A   Clear
1:53 PM 57.0 °F - 30.0 °F 36% 30.30 in 10.0 mi Variable 4.6 mph - N/A   Clear
2:53 PM 59.0 °F - 30.9 °F 35% 30.29 in 10.0 mi Variable 5.8 mph - N/A   Clear
3:53 PM 57.9 °F - 30.0 °F 35% 30.28 in 10.0 mi NW 6.9 mph - N/A   Clear
4:53 PM 57.0 °F - 30.9 °F 37% 30.27 in 10.0 mi NW 3.5 mph - N/A   Clear
5:53 PM 54.0 °F - 32.0 °F 43% 30.27 in 10.0 mi NNW 4.6 mph - N/A   Clear
6:53 PM 46.0 °F - 33.1 °F 61% 30.28 in 10.0 mi Calm Calm - N/A   Clear
7:53 PM 45.0 °F - 36.0 °F 71% 30.28 in 10.0 mi Calm Calm - N/A   Clear
8:53 PM 41.0 °F - 35.1 °F 79% 30.28 in 10.0 mi Calm Calm - N/A   Clear
9:53 PM 39.0 °F - 34.0 °F 82% 30.28 in 10.0 mi Calm Calm - N/A   Clear
10:53 PM 37.0 °F 33.3 °F 33.1 °F 86% 30.29 in 10.0 mi ENE 4.6 mph - N/A   Clear
11:53 PM 35.1 °F 32.2 °F 32.0 °F 89% 30.28 in 10.0 mi ENE 3.5 mph - N/A   Clear